FW8857 Weather Reports


time (UTC)temp
C
wind
direction
speed
KPH
gust
KPH
rain 1hr
cm
rain 24hr
cm
rain mn
cm
humidity
%
barometer
mb
20260505224442 16 350 8.0 14.5 0.00 0.00 0.00 73 1015.6
20260505223943 16 341 8.0 14.5 0.00 0.00 0.00 72 1015.6
20260505223443 17 337 6.4 14.5 0.00 0.00 0.00 72 1015.6
20260505223203 17 20 6.4 14.5 0.00 0.00 0.00 72 1015.7
20260505222710 17 352 6.4 12.9 0.00 0.00 0.00 72 1015.7
20260505221943 16 0 8.0 14.5 0.00 0.00 0.00 72 1015.7
20260505221444 17 357 6.4 14.5 0.00 0.00 0.00 72 1015.7
20260505220944 17 302 4.8 9.7 0.00 0.00 0.00 71 1015.7
20260505220706 16 299 6.4 14.5 0.00 0.00 0.00 72 1015.8
20260505215940 16 299 6.4 14.5 0.00 0.00 0.00 71 1015.8
20260505215437 17 264 6.4 11.3 0.00 0.00 0.00 71 1015.7
20260505214937 16 298 6.4 11.3 0.00 0.00 0.00 72 1015.8
20260505214438 17 330 6.4 11.3 0.00 0.00 0.00 72 1015.8
20260505213938 17 310 4.8 9.7 0.00 0.00 0.00 71 1015.8
20260505213438 17 268 3.2 9.7 0.00 0.00 0.00 70 1015.8
20260505212937 17 289 3.2 9.7 0.00 0.00 0.00 71 1015.9
20260505212437 17 256 4.8 11.3 0.00 0.00 0.00 71 1015.9
20260505211938 17 254 4.8 16.1 0.00 0.00 0.00 71 1015.9
20260505211438 17 292 3.2 16.1 0.00 0.00 0.00 70 1015.9
20260505210936 16 233 4.8 9.7 0.00 0.00 0.00 72 1016.0
20260505210436 16 126 4.8 11.3 0.00 0.00 0.00 72 1016.0
20260505210156 16 356 4.8 11.3 0.00 0.00 0.00 73 1016.1
20260505205435 16 95 3.2 8.0 0.00 0.00 0.00 74 1016.1
20260505204936 16 53 4.8 11.3 0.00 0.00 0.00 74 1016.1
20260505204436 16 351 6.4 11.3 0.00 0.00 0.00 74 1016.2
20260505203932 16 348 4.8 11.3 0.00 0.00 0.00 74 1016.2
20260505203433 16 0 4.8 9.7 0.00 0.00 0.00 75 1016.2
20260505202933 16 310 6.4 12.9 0.00 0.00 0.00 74 1016.2
20260505202433 16 349 6.4 12.9 0.00 0.00 0.00 74 1016.2
20260505201933 16 13 3.2 9.7 0.00 0.00 0.00 74 1016.2
20260505201657 16 28 4.8 12.9 0.00 0.00 0.00 75 1016.3
20260505200933 16 345 4.8 12.9 0.00 0.00 0.00 75 1016.3
20260505200434 16 346 4.8 12.9 0.00 0.00 0.00 75 1016.3
20260505195933 16 4 4.8 9.7 0.00 0.00 0.00 75 1016.3
20260505195433 15 0 4.8 9.7 0.00 0.00 0.00 75 1016.3
20260505195208 15 22 4.8 9.7 0.00 0.00 0.00 76 1016.3
20260505194433 15 330 4.8 9.7 0.00 0.00 0.00 76 1016.4
20260505193934 15 74 6.4 9.7 0.00 0.00 0.00 77 1016.4
20260505193431 15 27 4.8 9.7 0.00 0.00 0.00 78 1016.4
20260505192931 15 15 4.8 9.7 0.00 0.00 0.00 79 1016.5
20260505192431 15 23 4.8 9.7 0.00 0.00 0.00 79 1016.4
20260505191931 15 13 3.2 9.7 0.00 0.00 0.00 78 1016.5
20260505191431 15 309 3.2 9.7 0.00 0.00 0.00 75 1016.4
20260505191150 15 353 3.2 9.7 0.00 0.00 0.00 76 1016.5
20260505190431 15 300 3.2 8.0 0.00 0.00 0.00 76 1016.5
20260505185931 15 288 1.6 6.4 0.00 0.00 0.00 76 1016.5
20260505185656 15 0 1.6 6.4 0.00 0.00 0.00 77 1016.4
20260505184932 15 323 1.6 6.4 0.00 0.00 0.00 77 1016.4
20260505184653 15 0 1.6 6.4 0.00 0.00 0.00 78 1016.4
20260505183931 15 292 1.6 6.4 0.00 0.00 0.00 78 1016.5
20260505183431 15 298 1.6 6.4 0.00 0.00 0.00 78 1016.5
20260505182929 15 255 3.2 8.0 0.00 0.00 0.00 78 1016.5
20260505182429 14 283 3.2 8.0 0.00 0.00 0.00 79 1016.5
20260505181929 14 236 3.2 9.7 0.00 0.00 0.00 78 1016.4
20260505181429 14 298 4.8 9.7 0.00 0.00 0.00 78 1016.4
20260505180929 14 184 3.2 9.7 0.00 0.00 0.00 79 1016.4
20260505180429 14 181 3.2 8.0 0.00 0.00 0.00 78 1016.3
20260505175930 14 251 1.6 8.0 0.00 0.00 0.00 77 1016.3
20260505175429 14 331 1.6 6.4 0.00 0.00 0.00 78 1016.3
20260505174930 14 297 3.2 9.7 0.00 0.00 0.00 78 1016.3
20260505174429 14 284 3.2 9.7 0.00 0.00 0.00 78 1016.3
20260505174158 14 275 3.2 9.7 0.00 0.00 0.00 78 1016.3
20260505173429 14 259 3.2 9.7 0.00 0.00 0.00 78 1016.3
20260505172927 14 207 4.8 9.7 0.00 0.00 0.00 79 1016.3
20260505172427 14 195 4.8 11.3 0.00 0.00 0.00 79 1016.2
20260505172146 14 288 6.4 11.3 0.00 0.00 0.00 78 1016.2
20260505171424 14 196 4.8 11.3 0.00 0.00 0.00 78 1016.1
20260505170924 14 186 3.2 6.4 0.00 0.00 0.00 77 1016.1
20260505170424 14 141 3.2 6.4 0.00 0.00 0.00 78 1016.1
20260505165924 14 303 3.2 8.0 0.00 0.00 0.00 78 1016.0
20260505165651 14 291 3.2 8.0 0.00 0.00 0.00 78 1016.0
20260505164924 14 2 3.2 8.0 0.00 0.00 0.00 80 1016.0
20260505164423 14 153 3.2 8.0 0.00 0.00 0.00 80 1016.0
20260505163924 14 189 3.2 8.0 0.00 0.00 0.00 80 1016.0
20260505163424 14 280 1.6 9.7 0.00 0.00 0.00 80 1016.0
20260505162924 14 294 1.6 9.7 0.00 0.00 0.00 80 1016.0
20260505162425 13 279 3.2 8.0 0.00 0.00 0.00 81 1015.9
20260505162411 13 243 3.2 9.7 0.00 0.00 0.00 81 1015.9
20260505161651 13 180 3.2 9.7 0.00 0.00 0.00 82 1015.9
20260505160923 13 305 3.2 9.7 0.00 0.00 0.00 82 1015.9
20260505160427 13 0 3.2 9.7 0.00 0.00 0.00 82 1015.9
20260505152919 13 205 3.2 8.0 0.00 0.00 0.00 85 1015.8
20260505152419 12 267 3.2 8.0 0.00 0.00 0.00 85 1015.8
20260505151920 12 198 1.6 8.0 0.00 0.00 0.00 85 1015.8
20260505151419 12 254 1.6 6.4 0.00 0.00 0.00 85 1015.8
20260505150919 12 0 3.2 8.0 0.00 0.00 0.00 86 1015.8
20260505150648 12 291 3.2 8.0 0.00 0.00 0.00 86 1015.7
20260505140631 12 151 1.6 6.4 0.00 0.00 0.00 85 1015.1
20260505124909 12 273 3.2 8.0 0.00 0.00 0.00 85 1014.7
20260505124406 12 316 3.2 8.0 0.00 0.00 0.00 85 1014.7
20260505123906 12 272 1.6 8.0 0.00 0.00 0.00 85 1014.7
20260505123403 12 297 1.6 6.4 0.00 0.00 0.00 85 1014.6
20260505122903 12 193 1.6 6.4 0.00 0.00 0.00 85 1014.7
20260505122403 12 214 1.6 4.8 0.00 0.00 0.00 85 1014.7
20260505122126 12 302 1.6 4.8 0.00 0.00 0.00 85 1014.7
20260505121623 12 284 1.6 4.8 0.00 0.00 0.00 85 1014.7
20260505121126 12 305 1.6 6.4 0.00 0.00 0.00 85 1014.6
20260505120401 12 197 3.2 6.4 0.00 0.00 0.00 85 1014.6
20260505115901 12 287 3.2 8.0 0.00 0.00 0.00 84 1014.6
20260505115402 12 284 1.6 8.0 0.00 0.00 0.00 84 1014.6
20260505114901 12 279 1.6 3.2 0.00 0.00 0.00 84 1014.6
20260505114402 12 252 1.6 4.8 0.00 0.00 0.00 84 1014.6
20260505113900 12 286 1.6 4.8 0.00 0.00 0.00 84 1014.6
20260505113359 12 255 1.6 3.2 0.00 0.00 0.00 84 1014.6
20260505112859 12 69 1.6 3.2 0.00 0.00 0.00 84 1014.6
20260505112359 12 0 1.6 4.8 0.00 0.00 0.00 84 1014.5
20260505111856 12 192 1.6 4.8 0.00 0.00 0.00 84 1014.6
20260505111356 12 287 0.0 3.2 0.00 0.00 0.00 84 1014.6
20260505111122 12 0 0.0 3.2 0.00 0.00 0.00 85 1014.5
20260505110627 12 325 0.0 3.2 0.00 0.00 0.00 85 1014.5
20260505110112 12 185 0.0 6.4 0.00 0.00 0.00 85 1014.4
20260505101849 12 256 1.6 4.8 0.00 0.00 0.00 84 1014.1
20260505101348 12 179 1.6 4.8 0.00 0.00 0.00 84 1014.1
20260505100848 12 324 1.6 8.0 0.00 0.00 0.00 84 1014.1
20260505100345 12 49 1.6 8.0 0.00 0.00 0.00 84 1014.1
20260505095845 13 1 1.6 4.8 0.00 0.00 0.00 84 1014.1
20260505095345 13 0 1.6 4.8 0.00 0.00 0.00 84 1014.1
20260505094843 12 282 1.6 4.8 0.00 0.00 0.00 84 1014.1
20260505094606 12 313 0.0 4.8 0.00 0.00 0.00 85 1014.0
20260505093843 12 0 0.0 3.2 0.00 0.00 0.00 86 1014.0
20260505093340 12 274 0.0 3.2 0.00 0.00 0.00 87 1014.0
20260505092840 12 0 1.6 3.2 0.00 0.00 0.00 87 1014.0
20260505092601 12 0 1.6 4.8 0.00 0.00 0.00 87 1013.9
20260505092103 13 341 3.2 4.8 0.00 0.00 0.00 86 1013.9
20260505091340 13 356 3.2 4.8 0.00 0.00 0.00 86 1013.8
20260505090841 13 331 3.2 4.8 0.00 0.00 0.00 86 1013.8
20260505090341 13 34 3.2 6.4 0.00 0.00 0.00 86 1013.7
20260505085841 13 0 3.2 6.4 0.00 0.00 0.00 86 1013.7
20260505085826 13 356 3.2 4.8 0.00 0.00 0.00 86 1013.6
20260505084838 13 354 3.2 6.4 0.00 0.00 0.00 86 1013.6
20260505084338 13 36 3.2 6.4 0.00 0.00 0.00 86 1013.7
20260505083838 13 338 4.8 6.4 0.00 0.00 0.00 85 1013.7
20260505083338 13 35 4.8 6.4 0.00 0.00 0.00 85 1013.7
20260505082838 13 341 4.8 8.0 0.00 0.00 0.00 85 1013.6
20260505082834 13 10 4.8 8.0 0.00 0.00 0.00 84 1013.5
20260505081838 13 3 4.8 8.0 0.00 0.00 0.00 84 1013.5
20260505081338 13 347 4.8 8.0 0.00 0.00 0.00 84 1013.5
20260505080838 13 357 4.8 8.0 0.00 0.00 0.00 83 1013.5
20260505080338 13 22 4.8 9.7 0.00 0.00 0.00 83 1013.5
20260505075838 13 22 6.4 9.7 0.00 0.00 0.00 83 1013.4
20260505075338 14 24 4.8 9.7 0.00 0.00 0.00 82 1013.5
20260505074839 14 39 6.4 9.7 0.00 0.00 0.00 82 1013.4
20260505074605 14 28 6.4 9.7 0.00 0.00 0.00 82 1013.4
20260505073837 14 39 4.8 9.7 0.00 0.00 0.00 81 1013.2
20260505073335 15 15 4.8 6.4 0.00 0.00 0.00 80 1013.1
20260505072836 15 29 3.2 6.4 0.00 0.00 0.00 79 1013.1
20260505072336 15 275 1.6 4.8 0.00 0.00 0.00 78 1013.0
20260505072320 15 298 1.6 8.0 0.00 0.00 0.00 79 1013.0
20260505071337 15 0 3.2 8.0 0.00 0.00 0.00 78 1012.9
20260505070837 15 272 3.2 9.7 0.00 0.00 0.00 78 1012.8
20260505070336 15 273 1.6 9.7 0.00 0.00 0.00 78 1012.8
20260505070104 15 276 1.6 3.2 0.00 0.00 0.00 78 1012.7
20260505065336 15 271 0.0 3.2 0.00 0.00 0.00 78 1012.7
20260505064834 15 303 1.6 4.8 0.00 0.00 0.00 77 1012.6
20260505064334 15 311 1.6 4.8 0.00 0.00 0.00 77 1012.5
20260505063834 15 277 1.6 8.0 0.00 0.00 0.00 76 1012.4
20260505063604 15 217 3.2 8.0 0.00 0.00 0.00 76 1012.4
20260505062838 16 269 3.2 8.0 0.00 0.00 0.00 76 1012.3
20260505062337 16 224 1.6 8.0 0.00 0.00 0.00 76 1012.3
20260505062056 16 294 1.6 3.2 0.00 0.00 0.00 78 1012.2
20260505061338 16 328 1.6 6.4 0.00 0.00 0.00 77 1012.1
20260505060837 16 309 1.6 6.4 0.00 0.00 0.00 76 1012.1
20260505060337 16 313 1.6 3.2 0.00 0.00 0.00 76 1012.0
20260505060324 16 309 1.6 4.8 0.00 0.00 0.00 75 1012.0
20260505055338 16 319 3.2 6.4 0.00 0.00 0.00 74 1012.0
20260505054838 17 326 3.2 6.4 0.00 0.00 0.00 74 1011.9
20260505054559 17 326 1.6 4.8 0.00 0.00 0.00 73 1011.9
20260505053838 17 341 1.6 4.8 0.00 0.00 0.00 73 1011.9
20260505053338 17 225 3.2 6.4 0.00 0.00 0.00 72 1011.9
20260505053055 17 303 3.2 6.4 0.00 0.00 0.00 71 1011.8
20260505052331 17 314 4.8 8.0 0.00 0.00 0.00 71 1011.8
20260505051832 17 254 4.8 8.0 0.00 0.00 0.00 70 1011.8
20260505051332 18 285 4.8 9.7 0.00 0.00 0.00 70 1011.8
20260505050832 18 324 4.8 12.9 0.00 0.00 0.00 69 1011.7
20260505050332 18 307 4.8 12.9 0.00 0.00 0.00 69 1011.6
20260505041329 20 285 1.6 8.0 0.00 0.00 0.00 69 1010.9
20260505040826 20 272 4.8 12.9 0.00 0.00 0.00 69 1010.9
20260505040326 20 276 4.8 12.9 0.00 0.00 0.00 68 1010.8
20260505035827 20 245 4.8 12.9 0.00 0.00 0.00 69 1010.7
20260505035327 20 236 4.8 11.3 0.00 0.00 0.00 70 1010.5
20260505034827 20 269 4.8 12.9 0.00 0.00 0.00 70 1010.5
20260505034327 20 208 4.8 12.9 0.00 0.00 0.00 69 1010.4
20260505033827 20 192 4.8 9.7 0.00 0.00 0.00 69 1010.3
20260505033327 20 214 4.8 9.7 0.00 0.00 0.00 68 1010.2
20260505032827 20 206 4.8 11.3 0.00 0.00 0.00 68 1010.2
20260505032327 20 270 4.8 11.3 0.00 0.00 0.00 68 1010.1
20260505031828 21 272 4.8 11.3 0.00 0.00 0.00 68 1010.1
20260505031328 21 229 4.8 11.3 0.00 0.00 0.00 67 1010.0
20260505030824 21 233 4.8 11.3 0.00 0.00 0.00 67 1010.0
20260505030325 21 242 4.8 14.5 0.00 0.00 0.00 67 1009.9
20260505025822 21 264 4.8 14.5 0.00 0.00 0.00 67 1009.9
20260505025322 21 212 4.8 9.7 0.00 0.00 0.00 67 1009.8
20260505024821 21 226 4.8 12.9 0.00 0.00 0.00 66 1009.8
20260505024320 21 213 4.8 12.9 0.00 0.00 0.00 65 1009.7
20260505023821 21 258 3.2 9.7 0.00 0.00 0.00 65 1009.7
20260505023321 22 271 3.2 8.0 0.00 0.00 0.00 64 1009.7
20260505022821 22 203 4.8 9.7 0.00 0.00 0.00 64 1009.8
20260505022320 22 264 4.8 9.7 0.00 0.00 0.00 63 1009.7
20260505021821 22 250 4.8 9.7 0.00 0.00 0.00 62 1009.7
20260505021320 22 254 4.8 9.7 0.00 0.00 0.00 61 1009.7
20260505020821 22 226 4.8 11.3 0.00 0.00 0.00 61 1009.7
20260505020544 22 256 3.2 12.9 0.00 0.00 0.00 60 1009.8
20260505020046 22 243 6.4 14.5 0.00 0.00 0.00 61 1009.8
20260505015543 22 199 6.4 14.5 0.00 0.00 0.00 61 1009.8
20260505014820 22 219 6.4 14.5 0.00 0.00 0.00 60 1009.8
20260505014321 23 212 6.4 14.5 0.00 0.00 0.00 60 1009.8
20260505013821 23 261 6.4 12.9 0.00 0.00 0.00 59 1009.8
20260505013321 23 263 6.4 12.9 0.00 0.00 0.00 59 1009.8
20260505012820 23 239 4.8 12.9 0.00 0.00 0.00 60 1010.0
20260505012321 23 203 4.8 12.9 0.00 0.00 0.00 59 1010.0
20260505011821 23 206 6.4 12.9 0.00 0.00 0.00 60 1010.0
20260505011321 23 261 6.4 14.5 0.00 0.00 0.00 60 1010.1
20260505010821 23 184 6.4 14.5 0.00 0.00 0.00 59 1010.1
20260505010321 23 227 4.8 12.9 0.00 0.00 0.00 58 1010.1
20260505005820 23 305 4.8 14.5 0.00 0.00 0.00 58 1010.0
20260505005321 23 268 4.8 14.5 0.00 0.00 0.00 58 1010.0
20260505004821 23 260 4.8 12.9 0.00 0.00 0.00 57 1010.1
20260505004320 23 273 6.4 12.9 0.00 0.00 0.00 57 1010.1
20260505003820 23 236 6.4 12.9 0.00 0.00 0.00 57 1010.2
20260505003320 23 283 6.4 12.9 0.00 0.00 0.00 56 1010.2
20260505002821 23 248 6.4 12.9 0.00 0.00 0.00 57 1010.3
20260505002321 23 232 6.4 16.1 0.00 0.00 0.00 57 1010.3
20260505002043 23 199 8.0 17.7 0.00 0.00 0.00 57 1010.2
20260505001320 23 278 6.4 17.7 0.00 0.00 0.00 56 1010.3
20260505000820 23 266 6.4 14.5 0.00 0.00 0.00 55 1010.3
20260505000551 23 268 6.4 17.7 0.00 0.00 0.00 55 1010.3
20260504235821 23 253 6.4 17.7 0.00 0.00 0.00 56 1010.4
20260504235321 23 281 4.8 12.9 0.00 0.00 0.00 56 1010.4
20260504234821 23 158 4.8 14.5 0.00 0.00 0.00 57 1010.4
20260504234321 23 187 6.4 14.5 0.00 0.00 0.00 56 1010.4
20260504233820 23 259 6.4 14.5 0.00 0.00 0.00 54 1010.4
20260504233320 22 286 6.4 14.5 0.00 0.00 0.00 55 1010.5
20260504232821 22 218 6.4 14.5 0.00 0.00 0.00 56 1010.5
20260504232321 22 269 6.4 14.5 0.00 0.00 0.00 57 1010.5
20260504231821 22 246 6.4 14.5 0.00 0.00 0.00 57 1010.5
20260504231321 22 141 8.0 14.5 0.00 0.00 0.00 57 1010.6
20260504230821 22 154 6.4 14.5 0.00 0.00 0.00 57 1010.6
20260504230549 22 142 4.8 9.7 0.00 0.00 0.00 55 1010.7
20260504225821 22 151 4.8 12.9 0.00 0.00 0.00 56 1010.8
20260504225321 22 173 4.8 12.9 0.00 0.00 0.00 57 1010.8
20260504224821 22 263 4.8 14.5 0.00 0.00 0.00 57 1010.9